Startpagina
METAR-TAF:

METAR-TAF

Vliegvelden :

K13-a, Nederland

Productieplatform

breedte: 53-13-04N, lengte: 3-13-13E, hoogte: 31 m

Actueel weer

Dit bericht is 21 minuten geleden gemaakt, om 18:55 UTC
Wind 21 kt uit het zuidzuidwesten
Temperatuur 9°C
Vochtigheid 87%
Druk 1013 hPa

METAR: EHJR 231855Z AUTO 21021KT //// // ///////// 09/07 Q1013 RE// W07/H8

Tijdstip: 21:16 (19:16 UTC)


TAF: ontbreekt

Waarnemingen en weersverwachtingen van meer dan 4000 vliegvelden (METAR en TAF).

De beschikbare stations zijn de gele en rode punten op de kaart.

Ga met uw muis naar het station om de naam te zien.

Klik dan om waarnemingen en weersverwachtingen te zien.

kaart wijzigen: klik op de groene knoppen met een zwart kruis om in te zoomen, op de groene knop met een streepje om uit te zoomen of op de groene pijlen voor aangrenzende kaarten.


METAR-TAF: